Retour au catalogue

STARLINK-31780

ActifCommunicationsVLEO
NORAD 59432·PAYLOAD·🇺🇸 United States

Lancé Apr 7, 2024 depuis Vandenberg Space Force Base

Loading…

Prochains Passages (prochaines 24 heures)

TLE

FraisSource: CelesTrak SupGP

Époque: Sep 14, 2026, 21:32 UTC

1 59432C 24065M   26257.89770833 -.00071959  00000+0 -21262-2 0  2571
2 59432  53.1566 119.5935 0001267  88.0525 268.9045 15.34424331    13

Suivez STARLINK-31780 en temps réel avec AllMySat

Download on the App Store